Location: Ceske Budejovice
(48.9830°N, 14.4670°E)
Time: 01:52:46
(UTC+01:00)

ISS - Pass Details

Date: 07 October 2020
Orbit: 417 x 420 km, 51.6° (Epoch: 25 October)

Event Time Altitude Azimuth Distance (km) Brightness Sun altitude
Rises 19:34:12 0° 284° (WNW) 2,368 2.0 -11.7°
Reaches altitude 10° 19:36:51 10° 262° (W) 1,500 0.4 -12.1°
Maximum altitude 19:39:00 16° 222° (SW) 1,180 -1.0 -12.5°
Drops below altitude 10° 19:41:09 10° 182° (S) 1,494 -1.0 -12.9°
Enters shadow 19:43:22 - 162° (SSE) 2,200 -0.3 -13.2°
